• Contacto:

    Directo: 4535-5707
    poleposition@arnet.com.ar

  • Buscar Noticias

Gonzalez y el Werner Competición se candidatean

gonzalez1roentr

Comenzó la actividad oficial en Termas de Rio Hondo con la primera tanda de entrenamientos del TC Pista, bajo un cielo gris y con baja temperatura de ambiente, y el Werner Competición se mostró con todas las luces ya que sus pilotos, Nicolás González y Mauricio Lambiris marcaron el 1-2 a bordo de sus respectivos Ford.
El piloto rafaelino, que apeló para poder correr tras la fecha de suspensión impuesta por la ACTC, metió en su última vuelta un buen tiempo de 1m 40s 46/100, que le permitió desbancar a su compañero de equipo, el uruguayo Mauricio Lambiris por sólo 23/100. Tercero se ubicó Germán Giles siendo el mejor Chevrolet a 24/100, mientras la mejor Dodge fue la de Nazareno López, quien quedó a 58/100.
El “Top Ten” lo completaron los Ford de Gastón Todino y Franco De Benedictis, la Dodge de Emiliano López, y los Chevrolet de Franco Girolami, Federico Alonso y Nicolás Trosset.

1er. Entrenamiento TC Pista – Termas de Rio Hondo

1° 26 González, Nicolás 8 01:40.463
2° 82 Lambiris, Mauricio 10 01:40.699 0.236
3° 9 Giles, Germán 10 01:40.705 0.242
4° 14 López, Nazareno 12 01:41.050 0.587
5° 23 Todino, Gastón 12 01:41.153 0.690
6° 121 De Benedictis, Franco 10 01:41.175 0.712
7° 7 López, Emiliano 12 01:41.188 0.725
8° 81 Girolami, Franco 11 01:41.284 0.821
9° 95 Alonso, Federico 8 01:41.358 0.895
10° 12 Trosset, Nicolás 12 01:41.369 0.906
11° 77 Ebarlin, Juan José 10 01:41.622 1.159
12° 16 Perlo, Gonzalo 11 01:41.686 1.223
13° 15 Diruscio, Sebastián 12 01:41.687 1.224
14° 11 Pérez, Federico 13 01:41.701 1.238
15° 28 Paparella, Juan Manuel 13 01:41.714 1.251
16° 10 Tedeschi, Aldo 11 01:41.718 1.255
17° 21 Galarza, Ramiro 13 01:41.744 1.281
18° 6 Echevarría, Camilo 12 01:41.959 1.496
19° 33 Dentella, Cristian 13 01:42.005 1.542
20° 71 Cotignola , Nicolás 12 01:42.209 1.746
21| 60 Bruno, Juan Martin 8 01:42.226 1.763
22° 27 Pérez Bravo, Emanuel 10 01:42.279 1.816
23° 20 Gentile, Pedro 12 01:42.306 1.843
24° 111 Pezzucchi, Nicolas 9 01:42.472 2.009
25° 5 Mangoni, Santiago 11 01:42.476 2.013
26° 22 Grobocopatel, Daniel 3 01:42.521 2.058
27° 86 Costanzo, Pablo 11 01:42.621 2.158
28° 151 Urcera, José Manuel 11 01:42.667 2.204
29° 37 Laccette, Darío 9 01:42.677 2.214
30° 24 Berganza, Alejandro 8 01:43.001 2.538
31° 56 Garavano, José María 11 01:43.057 2.594
32° 117 Cordich, Ignacio 9 01:43.435 2.972
33° 42 Lynn, Federico 10 01:44.074 3.611
34° 123 Alifraco, Emanuel 10 01:44.192 3.729
35° 31 Ferrante, Gastón 10 01:45.804 5.341
36° 101 Garbelino, Juan 6 01:46.931 6.468
37° 100 Piccinin, Esteban 7 01:46.939 6.476
38° 114 Ricardo, Gaston 13 01:47.880 7.417
39° 18 Crusitta, Gastón 2 01:48.400 7.937
40° 17 González, Alejandro 1 01:54.175 13.712
41° 48 Abella, Sebastián 8 01:59.027 18.564

Anuncios

Responder

Introduce tus datos o haz clic en un icono para iniciar sesión:

Logo de WordPress.com

Estás comentando usando tu cuenta de WordPress.com. Cerrar sesión / Cambiar )

Imagen de Twitter

Estás comentando usando tu cuenta de Twitter. Cerrar sesión / Cambiar )

Foto de Facebook

Estás comentando usando tu cuenta de Facebook. Cerrar sesión / Cambiar )

Google+ photo

Estás comentando usando tu cuenta de Google+. Cerrar sesión / Cambiar )

Conectando a %s

A %d blogueros les gusta esto: